Location: Newark
(54.4000°N, 32.4500°E)
Time: 00:28:29
(UTC+00:00)

Envisat - Pass Details

Date: 26 January 2020
Orbit: 764 x 766 km, 98.1° (Epoch: 27 February)

Event Time Altitude Azimuth Distance (km) Brightness Sun altitude
Rises 15:12:47 0° 159° (SSE) 3,225 6.2 -8.2°
Reaches altitude 10° 15:15:04 10° 158° (SSE) 2,302 5.5 -8.5°
Maximum altitude 15:20:09 81° 72° (ENE) 784 3.0 -9.2°
Drops below altitude 10° 15:25:16 10° 346° (NNW) 2,318 5.4 -9.9°
Sets 15:27:35 0° 346° (NNW) 3,249 6.2 -10.2°
